time_stamp(utc),avg(mph),gust(mph),direction(deg),12m_air_temp(f),sonic_u(cm/s),sonic_v(cm/s),sonic_w(cm/s),pressure,2m_air_temp(f),pyranometer(W/m^2)
"2019-08-18 00:04:18+00",8.2,9.2,,77.8,-145,-318,-5,1014.42,77.6,0
"2019-08-18 00:09:18+00",7.2,9.2,,77.8,-123,-281,-4,1014.41,77.6,0
"2019-08-18 00:14:18+00",6.9,8.9,,77.8,-121,-265,5,1014.38,77.5,0
"2019-08-18 00:19:18+00",7.3,8.3,,77.7,-158,-273,-2,1014.34,77.5,0
"2019-08-18 00:24:18+00",5.0,6.0,,77.7,-128,-187,3,1014.57,77.4,0
"2019-08-18 00:29:18+00",5.0,7.0,,77.8,-119,-186,3,1014.57,77.4,0
"2019-08-18 00:34:18+00",5.4,6.4,,77.8,-74,-214,-3,1014.6,77.4,0
"2019-08-18 00:39:18+00",5.8,6.8,,77.7,-68,-245,-8,1014.65,77.4,0
"2019-08-18 00:44:18+00",4.8,5.8,,77.7,-39,-190,4,1014.8,77.4,0
"2019-08-18 00:49:18+00",3.7,4.7,,77.7,-43,-151,7,1014.95,77.4,0
"2019-08-18 00:54:18+00",4.1,6.1,,77.6,-44,-163,6,1015.12,77.4,0
"2019-08-18 00:59:18+00",5.1,6.1,,77.6,-30,-209,-5,1014.93,77.4,0
"2019-08-18 01:04:18+00",4.6,6.6,,77.5,9,-200,-2,1014.97,77.4,0
"2019-08-18 01:09:18+00",4.6,5.6,,77.5,0,-188,-6,1014.95,77.4,0
"2019-08-18 01:14:18+00",6.4,7.4,,77.5,4,-271,-22,1015.02,77.3,0
"2019-08-18 01:19:18+00",4.8,5.8,,77.5,-1,-198,-5,1015,77.3,0
"2019-08-18 01:24:18+00",5.0,6.0,,77.4,-29,-211,-17,1015.07,77.2,0
"2019-08-18 01:29:18+00",5.0,6.0,,77.3,-48,-207,-6,1015.11,77.1,0
"2019-08-18 01:34:18+00",5.1,6.1,,77.2,-45,-207,-4,1015.17,77,0
"2019-08-18 01:39:18+00",5.0,7.0,,77.1,-45,-212,-5,1015.23,77,0
"2019-08-18 01:44:18+00",4.7,6.7,,77,-35,-197,2,1015.25,77,0
"2019-08-18 01:49:18+00",5.6,6.6,,77,-14,-241,-19,1015.29,76.9,0
"2019-08-18 01:54:18+00",4.8,5.8,,77,10,-200,-6,1015.28,76.9,0
"2019-08-18 01:59:18+00",4.7,5.7,,77,-17,-200,-6,1015.31,76.9,0
"2019-08-18 02:04:18+00",5.2,7.2,,77.1,-7,-219,-13,1015.22,76.9,0
"2019-08-18 02:09:18+00",5.0,6.0,,77.1,-5,-207,-6,1015.29,76.9,0
"2019-08-18 02:14:18+00",5.0,7.0,,77.1,-8,-205,-16,1015.31,76.9,0
"2019-08-18 02:19:18+00",4.7,4.7,,77.2,12,-196,-8,1015.25,76.9,0
"2019-08-18 02:24:18+00",5.3,6.3,,77.2,6,-219,-3,1015.27,76.9,0
"2019-08-18 02:29:18+00",6.0,7.0,,77.2,1,-249,-8,1015.17,76.9,0
"2019-08-18 02:34:18+00",6.1,7.1,,77.3,6,-250,-6,1015.17,76.9,0
"2019-08-18 02:39:18+00",5.6,6.6,,77.2,8,-243,-6,1015.15,76.9,0
"2019-08-18 02:44:18+00",5.8,6.8,,77.2,-1,-241,-10,1015.11,76.9,0
"2019-08-18 02:49:18+00",6.3,8.3,,77.1,-46,-256,-10,1015.18,76.8,0
"2019-08-18 02:54:18+00",6.4,8.4,,77.1,-65,-264,-2,1015.16,76.8,0
"2019-08-18 02:59:18+00",5.6,7.6,,77,-60,-230,3,1015.08,76.7,0
"2019-08-18 03:04:18+00",5.6,6.6,,77,-68,-226,-2,1015.06,76.7,0
"2019-08-18 03:09:18+00",5.9,6.9,,77,-76,-236,-6,1015,76.7,0
"2019-08-18 03:14:18+00",5.4,7.4,,77,-42,-219,2,1015.04,76.6,0
"2019-08-18 03:19:18+00",4.7,5.7,,77,-19,-201,-2,1014.97,76.7,0
"2019-08-18 03:24:18+00",4.0,5.0,,77.1,28,-157,-2,1014.92,76.8,0
"2019-08-18 03:29:18+00",7.1,7.1,,76.9,94,-281,-6,1014.99,76.7,0
"2019-08-18 03:34:18+00",4.6,5.6,,76.8,18,-184,-10,1015.03,76.6,0
"2019-08-18 03:39:18+00",5.0,6.0,,76.7,14,-208,-11,1014.99,76.6,0
"2019-08-18 03:44:18+00",5.3,5.3,,76.7,13,-219,-8,1014.98,76.5,0
"2019-08-18 03:49:18+00",5.0,6.0,,76.6,12,-208,-11,1014.97,76.4,0
"2019-08-18 03:54:18+00",5.7,6.7,,76.6,-13,-240,-9,1015.02,76.3,0
"2019-08-18 03:59:18+00",6.1,7.1,,76.5,4,-248,-9,1014.97,76.2,0
"2019-08-18 04:04:18+00",5.9,6.9,,76.4,31,-246,-5,1015.03,76.2,0
"2019-08-18 04:09:18+00",6.2,7.2,,76.3,23,-268,-9,1015.06,76.2,0
"2019-08-18 04:14:18+00",6.2,7.2,,76.4,33,-260,-6,1015.02,76.1,0
"2019-08-18 04:19:18+00",7.0,8.0,,76.4,31,-292,-11,1015.03,76.1,0
"2019-08-18 04:24:18+00",5.6,7.6,,76.4,5,-231,-7,1015.02,76.1,0
"2019-08-18 04:29:18+00",5.3,7.3,,76.4,2,-223,-7,1015.03,76.1,0
"2019-08-18 04:34:18+00",6.2,8.2,,76.5,4,-255,-8,1015.05,76.2,0
"2019-08-18 04:39:18+00",5.0,6.0,,76.5,12,-213,-2,1015.18,76.2,0
"2019-08-18 04:44:18+00",4.4,5.4,,76.5,5,-191,0,1015.17,76.2,0
"2019-08-18 04:49:18+00",5.5,6.5,,76.5,-1,-224,-5,1015.13,76.2,0
"2019-08-18 04:54:18+00",6.6,7.6,,76.5,-29,-271,-23,1015.12,76.2,0
"2019-08-18 04:59:18+00",6.4,8.4,,76.6,-41,-263,-11,1015.12,76.3,0
"2019-08-18 05:04:18+00",5.8,6.8,,76.6,-21,-240,-16,1015.09,76.2,0
"2019-08-18 05:09:18+00",5.8,7.8,,76.6,-18,-245,1,1015.04,76.3,0
"2019-08-18 05:14:18+00",7.7,8.7,,76.7,-33,-325,-21,1015.11,76.3,0
"2019-08-18 05:19:18+00",6.3,9.3,,76.7,-29,-253,-1,1015.06,76.4,0
"2019-08-18 05:24:18+00",6.2,8.2,,76.7,-52,-248,-3,1015.08,76.4,0
"2019-08-18 05:29:18+00",7.9,8.9,,76.7,-11,-338,-31,1015.05,76.5,0
"2019-08-18 05:34:18+00",7.0,8.0,,76.7,-27,-298,-8,1015.01,76.5,0
"2019-08-18 05:39:18+00",6.8,8.8,,76.7,-13,-276,-10,1014.97,76.5,0
"2019-08-18 05:44:18+00",7.1,9.1,,76.7,-27,-295,-16,1015.01,76.5,0
"2019-08-18 05:49:18+00",6.2,8.2,,76.7,-5,-255,-7,1014.96,76.4,0
"2019-08-18 05:54:18+00",5.8,7.8,,76.7,-20,-239,-13,1015,76.4,0
"2019-08-18 05:59:18+00",5.4,6.4,,76.7,-38,-216,0,1014.99,76.4,0
"2019-08-18 06:04:18+00",6.3,7.3,,76.7,-29,-264,-14,1014.89,76.4,0
"2019-08-18 06:09:18+00",6.4,8.4,,76.7,-21,-263,-20,1014.88,76.3,0
"2019-08-18 06:14:18+00",6.9,8.9,,76.7,-34,-285,-12,1014.88,76.3,0
"2019-08-18 06:19:18+00",6.8,8.8,,76.7,-49,-273,-13,1014.8,76.4,0
"2019-08-18 06:24:18+00",6.8,8.8,,76.8,-53,-286,-2,1014.71,76.4,0
"2019-08-18 06:29:18+00",6.4,8.4,,76.7,-56,-271,-6,1014.72,76.4,0
"2019-08-18 06:34:18+00",5.8,7.8,,76.8,-30,-231,-8,1014.65,76.4,0
"2019-08-18 06:39:18+00",6.6,8.6,,76.8,-62,-277,-3,1014.71,76.5,0
"2019-08-18 06:44:18+00",6.8,9.8,,76.7,-49,-284,8,1014.9,76.5,0
"2019-08-18 06:49:18+00",7.3,10.3,,76.8,-89,-294,8,1014.81,76.5,0
"2019-08-18 06:54:18+00",8.1,11.1,,76.8,-75,-321,-2,1014.77,76.4,0
"2019-08-18 06:59:18+00",8.0,10.0,,76.8,-89,-322,-11,1014.77,76.5,0
"2019-08-18 07:04:18+00",8.2,11.2,,76.9,-67,-337,-16,1014.71,76.5,0
"2019-08-18 07:09:18+00",8.7,10.7,,76.9,-80,-368,-18,1014.72,76.5,0
"2019-08-18 07:14:18+00",7.3,10.3,,76.8,-73,-298,0,1014.66,76.5,0
"2019-08-18 07:19:18+00",6.8,9.8,,76.8,-77,-276,-2,1014.7,76.5,0
"2019-08-18 07:24:18+00",8.0,12.0,,76.8,-87,-318,-7,1014.69,76.5,0
"2019-08-18 07:29:18+00",5.7,7.7,,76.8,-60,-225,0,1014.65,76.4,0
"2019-08-18 07:34:18+00",5.5,7.5,,76.7,-73,-216,6,1014.6,76.4,0
"2019-08-18 07:39:18+00",5.5,6.5,,76.8,-100,-211,-4,1014.62,76.4,0
"2019-08-18 07:44:18+00",6.9,7.9,,76.8,-115,-276,2,1014.69,76.3,0
"2019-08-18 07:49:18+00",7.5,8.5,,76.8,-141,-289,0,1014.78,76.3,0
"2019-08-18 07:54:18+00",8.2,10.2,,76.9,-164,-322,10,1014.81,76.3,0
"2019-08-18 07:59:18+00",8.1,11.1,,76.9,-171,-308,-3,1014.78,76.3,0
"2019-08-18 08:04:18+00",8.5,9.5,,77,-196,-327,4,1014.79,76.3,0
"2019-08-18 08:09:18+00",8.6,9.6,,77,-250,-300,3,1014.79,76.3,0
"2019-08-18 08:14:18+00",8.4,9.4,,77.1,-233,-288,8,1014.73,76.4,0
"2019-08-18 08:19:18+00",10.1,12.1,,77.1,-263,-369,-5,1014.88,76.4,0
"2019-08-18 08:24:18+00",8.4,9.4,,77.1,-218,-307,9,1014.88,76.5,0
"2019-08-18 08:29:18+00",9.7,10.7,,77.2,-216,-365,-9,1014.93,76.4,0
"2019-08-18 08:34:18+00",7.9,8.9,,77.2,-182,-294,5,1015.06,76.5,0
"2019-08-18 08:39:18+00",7.3,10.3,,77.1,-195,-269,10,1015.08,76.5,0
"2019-08-18 08:44:18+00",9.6,11.6,,77.2,-268,-343,-9,1015.04,76.5,0
"2019-08-18 08:49:18+00",8.0,9.0,,77.3,-245,-263,12,1015.03,76.5,0
"2019-08-18 08:54:18+00",7.2,9.2,,77.2,-202,-249,0,1015.01,76.5,0
"2019-08-18 08:59:18+00",8.2,9.2,,77.2,-231,-285,3,1015.09,76.5,0
"2019-08-18 09:04:18+00",8.1,9.1,,77.3,-238,-271,7,1015.03,76.5,0
"2019-08-18 09:09:18+00",7.2,8.2,,77.3,-209,-252,12,1015.19,76.5,0
"2019-08-18 09:14:18+00",7.8,8.8,,77.3,-244,-227,-7,1015.19,76.5,0
"2019-08-18 09:19:18+00",6.1,7.1,,77.3,-183,-202,8,1015.18,76.5,0
"2019-08-18 09:24:18+00",7.0,8.0,,77.3,-171,-259,-1,1015.13,76.6,0
"2019-08-18 09:29:18+00",7.5,8.5,,77.3,-189,-276,-3,1015.19,76.6,0
"2019-08-18 09:34:18+00",6.9,8.9,,77.3,-173,-253,6,1015.12,76.6,0
"2019-08-18 09:39:18+00",7.1,9.1,,77.3,-211,-242,17,1015.15,76.7,0
"2019-08-18 09:44:18+00",6.8,7.8,,77.3,-194,-238,3,1015.14,76.7,0
"2019-08-18 09:49:18+00",6.7,7.7,,77.3,-174,-240,3,1015.14,76.7,0
"2019-08-18 09:54:18+00",8.5,9.5,,77.3,-264,-266,5,1015.11,76.8,0
"2019-08-18 09:59:18+00",8.4,10.4,,77.4,-260,-268,12,1015.14,76.8,0
"2019-08-18 10:04:18+00",7.9,9.9,,77.5,-218,-280,11,1015.19,76.8,0
"2019-08-18 10:09:18+00",8.5,10.5,,77.5,-240,-301,2,1015.32,76.8,0
"2019-08-18 10:14:18+00",9.2,11.2,,77.5,-240,-336,-1,1015.4,76.8,0
"2019-08-18 10:19:18+00",9.1,10.1,,77.5,-232,-331,-7,1015.42,76.9,0
"2019-08-18 10:24:18+00",6.9,7.9,,77.4,-198,-242,11,1015.45,76.9,0
"2019-08-18 10:29:18+00",7.7,9.7,,77.5,-228,-264,9,1015.47,76.9,0
"2019-08-18 10:34:18+00",8.0,10.0,,77.5,-242,-265,13,1015.55,76.9,0
"2019-08-18 10:39:18+00",9.5,11.5,,77.6,-295,-300,5,1015.64,76.9,0
"2019-08-18 10:44:18+00",9.9,11.9,,77.6,-309,-320,4,1015.79,77,0
"2019-08-18 10:49:18+00",9.7,10.7,,77.7,-286,-334,6,1015.9,77.1,0
"2019-08-18 10:54:18+00",9.3,11.3,,77.7,-249,-338,4,1015.98,77.1,0
"2019-08-18 10:59:18+00",9.6,12.6,,77.7,-277,-337,1,1016.01,77.2,0
"2019-08-18 11:04:18+00",10.2,12.2,,77.8,-310,-347,-3,1016.02,77.3,0
"2019-08-18 11:09:18+00",9.6,11.6,,77.8,-302,-309,17,1016.11,77.3,0
"2019-08-18 11:14:18+00",8.4,9.4,,77.8,-272,-256,15,1016.15,77.4,0
"2019-08-18 11:19:18+00",9.0,10.0,,77.8,-274,-301,3,1016.21,77.5,0.5
"2019-08-18 11:24:18+00",9.1,10.1,,77.9,-269,-312,9,1016.22,77.6,1.3
"2019-08-18 11:29:18+00",8.2,11.2,,77.9,-229,-289,13,1016.22,77.7,4.8
"2019-08-18 11:34:18+00",9.1,10.1,,77.9,-214,-343,13,1016.36,77.7,8.3
"2019-08-18 11:39:18+00",9.0,12.0,,77.9,-263,-308,1,1016.41,77.8,11.6
"2019-08-18 11:44:18+00",9.5,10.5,,77.9,-296,-302,2,1016.37,77.8,17.4
"2019-08-18 11:49:18+00",8.7,10.7,,77.9,-233,-313,-2,1016.43,77.9,24.3
"2019-08-18 11:54:18+00",9.0,10.0,,77.9,-196,-340,-2,1016.43,78,27.7
"2019-08-18 11:59:18+00",8.0,9.0,,78,-230,-274,0,1016.44,78.1,34.3
"2019-08-18 12:04:18+00",8.5,9.5,,78.1,-217,-308,-3,1016.4,78.2,45.3
"2019-08-18 12:09:18+00",8.3,9.3,,78.2,-203,-310,1,1016.28,78.4,52.6
"2019-08-18 12:14:18+00",7.7,9.7,,78.3,-203,-275,16,1016.33,78.6,55.1
"2019-08-18 12:19:18+00",7.9,9.9,,78.4,-181,-297,5,1016.39,78.7,81.9
"2019-08-18 12:24:18+00",9.0,10.0,,78.5,-195,-340,1,1016.42,79,105.7
"2019-08-18 12:29:18+00",7.3,9.3,,78.8,-182,-271,24,1016.38,79.5,150
"2019-08-18 12:34:18+00",9.1,10.1,,78.9,-244,-331,-1,1016.28,80,172
"2019-08-18 12:39:18+00",8.8,10.8,,79.1,-238,-319,13,1016.26,80.5,154.3
"2019-08-18 12:44:18+00",8.6,9.6,,79.1,-207,-318,-7,1016.24,80.7,188.5
"2019-08-18 12:49:18+00",9.3,10.3,,79.3,-272,-324,-11,1016.23,81.1,217.7
"2019-08-18 12:54:18+00",8.0,9.0,,79.4,-281,-211,40,1016.18,81.9,207.2
"2019-08-18 12:59:18+00",8.9,9.9,,79.5,-318,-215,14,1016.12,82.7,167.2
"2019-08-18 13:04:18+00",8.1,10.1,,79.3,-259,-233,8,1016.03,82.9,86.1
"2019-08-18 13:09:18+00",7.8,8.8,,79.3,-324,-163,17,1015.96,83.2,110.6
"2019-08-18 13:14:18+00",8.2,9.2,,79.3,-326,-178,18,1015.95,83.3,93
"2019-08-18 13:19:18+00",8.6,9.6,,79.4,-297,-215,9,1015.92,83.3,154.3
"2019-08-18 13:24:18+00",7.6,8.6,,79.5,-262,-188,6,1015.94,83.2,135.6
"2019-08-18 13:29:18+00",6.7,7.7,,79.6,-280,-138,16,1015.99,83.4,157.2
"2019-08-18 13:34:18+00",6.8,7.8,,79.7,-222,-198,13,1016.05,83.4,143.2
"2019-08-18 13:39:18+00",7.3,8.3,,79.7,-302,-103,2,1016.19,83.7,155.4
"2019-08-18 13:44:18+00",6.0,7.0,,79.8,-231,-135,21,1016.12,84,153.4
"2019-08-18 13:49:18+00",5.2,6.2,,80,-172,-135,2,1016.1,84.4,161.4
"2019-08-18 13:54:18+00",4.1,5.1,,80.2,-164,-73,23,1016.06,84.8,218.7
"2019-08-18 13:59:18+00",3.8,3.8,,80.5,-88,-141,16,1016.02,85.2,207.9
"2019-08-18 14:04:18+00",4.0,5.0,,80.8,-94,-144,19,1016.08,84.6,212.2
"2019-08-18 14:09:18+00",4.9,5.9,,81.3,-10,-195,11,1016.05,84.1,205.6
"2019-08-18 14:14:18+00",5.2,6.2,,81.2,30,-214,7,1016.08,83.3,222
"2019-08-18 14:19:18+00",7.5,8.5,,80.9,102,-303,-23,1015.99,82.8,197.3
"2019-08-18 14:24:18+00",5.8,6.8,,80.7,61,-233,-15,1015.95,82.4,173
"2019-08-18 14:29:18+00",5.3,6.3,,81.2,43,-209,9,1015.97,82.6,192.9
"2019-08-18 14:34:18+00",3.9,3.9,,81,31,-162,-8,1016.08,82.3,173.3
"2019-08-18 14:39:18+00",3.3,4.3,,81.4,-63,-124,-11,1016.11,82.8,274.2
"2019-08-18 14:44:18+00",0.0,0.0,,81.7,-5,-76,25,1016.1,83.2,139.5
"2019-08-18 14:49:18+00",2.9,3.9,,81.9,26,-125,22,1016.26,83.4,164.4
"2019-08-18 14:54:18+00",1.2,2.2,,82,13,-70,16,1016.24,83.4,264.9
"2019-08-18 14:59:18+00",2.6,2.6,,82.1,35,-144,-5,1016.24,83.4,150
"2019-08-18 15:04:18+00",0.0,0.0,,82.2,-27,-86,12,1016.37,83.4,245.1
"2019-08-18 15:09:18+00",3.1,4.1,,82.3,71,-159,-1,1016.41,83.9,282.2
"2019-08-18 15:14:18+00",2.3,3.3,,82.6,-98,-121,16,1016.6,84.3,303.2
"2019-08-18 15:19:18+00",0.0,0.0,,82.8,-94,-37,-5,1016.5,85.4,409.5
"2019-08-18 15:24:18+00",1.7,4.7,,83.2,-111,-99,17,1016.47,86.8,215
"2019-08-18 15:29:18+00",2.6,3.6,,83.2,10,-151,16,1016.39,87.3,211.9
"2019-08-18 15:34:18+00",3.0,4.0,,83.2,26,-156,3,1016.39,86.3,182.2
"2019-08-18 15:39:18+00",3.8,4.8,,83.3,36,-183,9,1016.42,85.6,416.4
"2019-08-18 15:44:18+00",3.8,5.8,,83.4,98,-160,-18,1016.42,85.3,324.1
"2019-08-18 15:49:18+00",6.0,7.0,,82.8,71,-251,-1,1016.38,84.8,228.2
"2019-08-18 15:54:18+00",6.2,8.2,,82.3,64,-261,10,1016.39,84.3,238.8
"2019-08-18 15:59:18+00",6.5,8.5,,81.4,96,-264,29,1016.41,83.5,270.2
"2019-08-18 16:04:18+00",8.8,9.8,,80.6,114,-353,-23,1016.44,83,472.2
"2019-08-18 16:09:18+00",8.6,9.6,,81.1,92,-352,-10,1016.49,83,351.3
"2019-08-18 16:14:18+00",8.1,10.1,,80.7,84,-332,-30,1016.46,82.7,313.4
"2019-08-18 16:19:18+00",8.2,10.2,,81,108,-329,28,1016.48,83.2,547.8
"2019-08-18 16:24:18+00",12.0,13.0,,81,142,-494,-30,1016.39,83.3,516.9
"2019-08-18 16:29:18+00",9.3,10.3,,81.7,60,-402,-24,1016.39,83.9,435.1
"2019-08-18 16:34:18+00",9.0,10.0,,81.7,127,-368,-9,1016.43,83.8,421
"2019-08-18 16:39:18+00",9.7,11.7,,81.3,107,-401,-4,1016.44,83.5,335.2
"2019-08-18 16:44:18+00",10.5,11.5,,81,109,-434,-25,1016.34,83,350.7
"2019-08-18 16:49:18+00",10.4,12.4,,81.2,90,-449,-16,1016.39,83.4,480.7
"2019-08-18 16:54:18+00",10.3,12.3,,81.1,84,-436,-17,1016.45,83.3,283.9
"2019-08-18 16:59:18+00",10.6,12.6,,80.8,108,-423,-5,1016.37,82.8,294.4
"2019-08-18 17:04:18+00",10.0,12.0,,80.9,88,-410,7,1016.28,82.9,333.1
"2019-08-18 17:09:18+00",7.6,10.6,,81.3,59,-314,18,1016.26,83,293.5
"2019-08-18 17:14:18+00",7.3,10.3,,81.5,62,-284,26,1016.37,83.2,422.5
"2019-08-18 17:19:18+00",8.2,10.2,,81.7,22,-339,-7,1016.4,83.5,388.1
"2019-08-18 17:24:18+00",9.4,12.4,,81.9,52,-389,-2,1016.54,83.5,220.4
"2019-08-18 17:29:18+00",7.4,10.4,,82.2,21,-312,0,1016.58,83.6,429.1
"2019-08-18 17:34:18+00",9.8,12.8,,82.5,1,-412,-25,1016.56,83.9,357.7
"2019-08-18 17:39:18+00",13.4,14.4,,82.1,29,-576,-49,1016.52,83.7,387.6
"2019-08-18 17:44:18+00",10.8,13.8,,82.2,42,-456,3,1016.47,83.8,313.2
"2019-08-18 17:49:18+00",12.8,14.8,,81.9,47,-546,-26,1016.49,83.3,292.2
"2019-08-18 17:54:18+00",10.8,14.8,,82.2,-26,-458,-16,1016.5,83.4,381.8
"2019-08-18 17:59:18+00",13.1,16.1,,82.8,13,-554,-42,1016.58,84.1,480.5
"2019-08-18 18:04:18+00",11.0,19.0,,82.5,-77,-448,11,1016.49,83.9,354.5
"2019-08-18 18:09:18+00",12.1,15.1,,82.9,-68,-510,-18,1016.54,84.3,299.9
"2019-08-18 18:14:18+00",15.4,19.4,,82.4,-244,-628,1,1016.63,83.8,321.5
"2019-08-18 18:19:18+00",15.9,19.9,,82.1,-172,-649,-8,1016.59,83.7,257.6
"2019-08-18 18:24:18+00",14.0,18.0,,81.6,-154,-566,-3,1016.59,83,184.8
"2019-08-18 18:29:18+00",9.6,12.6,,82.2,-98,-388,33,1016.58,83.3,206
"2019-08-18 18:34:18+00",11.8,16.8,,82,-174,-480,18,1016.54,83.1,242.9
"2019-08-18 18:39:18+00",9.1,15.1,,82.2,-104,-366,50,1016.37,83.7,369.3
"2019-08-18 18:44:18+00",11.8,15.8,,82.7,-105,-497,-15,1016.21,84.1,267.8
"2019-08-18 18:49:18+00",13.8,16.8,,82.3,-172,-559,4,1016.28,83.7,172
"2019-08-18 18:54:18+00",13.9,15.9,,82.3,-319,-526,-2,1016.42,83.7,265.4
"2019-08-18 18:59:18+00",10.6,15.6,,82.6,-159,-419,25,1016.28,84,254.9
"2019-08-18 19:04:18+00",13.2,17.2,,82.3,-104,-544,-20,1016.07,83.7,311.8
"2019-08-18 19:09:18+00",12.3,16.3,,82.8,-169,-493,17,1015.91,84,349.8
"2019-08-18 19:14:18+00",13.3,18.3,,83.3,-110,-554,-2,1015.86,84.8,444.2
"2019-08-18 19:19:18+00",11.5,15.5,,83.9,-111,-478,11,1015.81,85.4,389.2
"2019-08-18 19:24:18+00",10.8,14.8,,83.7,-112,-444,15,1015.75,85.2,398.2
"2019-08-18 19:29:18+00",17.0,20.0,,83.4,-166,-714,-12,1015.59,85.1,378.9
"2019-08-18 19:34:18+00",14.2,20.2,,83.5,-139,-596,-4,1015.56,85,351.6
"2019-08-18 19:39:18+00",18.1,21.1,,83.2,-228,-745,-24,1015.72,84.8,340.3
"2019-08-18 19:44:18+00",14.1,18.1,,83.1,-137,-587,-1,1015.89,84.6,358.9
"2019-08-18 19:49:18+00",14.5,17.5,,82.6,-182,-595,-8,1016.06,84.3,307.2
"2019-08-18 19:54:18+00",11.9,14.9,,82.9,-249,-454,48,1016.05,84.6,344.1
"2019-08-18 19:59:18+00",16.6,18.6,,82.6,-385,-638,10,1015.96,84.9,370.5
"2019-08-18 20:04:18+00",15.8,17.8,,82.1,-305,-620,-6,1015.97,84.5,119.7
"2019-08-18 20:09:18+00",15.1,18.1,,81.7,-298,-585,3,1015.98,83.5,89.9
"2019-08-18 20:14:18+00",15.9,19.9,,81.7,-346,-612,-8,1015.88,83,86.9
"2019-08-18 20:19:18+00",15.5,17.5,,81.7,-311,-603,-3,1016.03,82.7,104.3
"2019-08-18 20:24:18+00",15.4,17.4,,81.9,-354,-585,-8,1016.03,83.1,278.2
"2019-08-18 20:29:18+00",15.2,17.2,,82.6,-284,-594,7,1015.84,84.1,288.7
"2019-08-18 20:34:18+00",14.5,18.5,,82.4,-310,-563,-15,1015.8,84.4,300.9
"2019-08-18 20:39:18+00",13.6,16.6,,82.9,-271,-522,8,1015.61,84.7,292.3
"2019-08-18 20:44:18+00",16.5,18.5,,82.4,-272,-652,-24,1015.39,84.3,227.5
"2019-08-18 20:49:18+00",15.0,18.0,,82.4,-236,-602,-14,1015.34,84,217.3
"2019-08-18 20:54:18+00",12.3,17.3,,82.8,-169,-503,13,1015.16,84.2,183.5
"2019-08-18 20:59:18+00",14.2,16.2,,82.7,-267,-556,2,1015.05,84.2,224.3
"2019-08-18 21:04:18+00",14.5,17.5,,82.6,-328,-548,-5,1014.94,84.3,218.7
"2019-08-18 21:09:18+00",12.2,14.2,,82.9,-269,-463,3,1014.8,84.6,210.3
"2019-08-18 21:14:18+00",13.2,16.2,,83.2,-290,-507,10,1014.77,84.7,193.4
"2019-08-18 21:19:18+00",14.2,17.2,,83.2,-336,-534,11,1014.74,84.8,194.8
"2019-08-18 21:24:18+00",12.5,16.5,,83.2,-192,-506,11,1014.74,84.8,185.5
"2019-08-18 21:29:18+00",9.3,13.3,,83.4,-55,-374,31,1014.64,84.7,185.8
"2019-08-18 21:34:18+00",15.3,18.3,,83,-167,-658,-33,1014.62,84.1,175.7
"2019-08-18 21:39:18+00",12.5,17.5,,82.5,-142,-522,-20,1014.72,83.7,166.8
"2019-08-18 21:44:18+00",14.6,16.6,,82,-198,-595,-7,1014.84,83.1,157.5
"2019-08-18 21:49:18+00",12.8,15.8,,81.9,-134,-530,-13,1015.07,83,150.2
"2019-08-18 21:54:18+00",10.7,13.7,,82,-181,-431,7,1015.02,83,140.7
"2019-08-18 21:59:18+00",12.9,14.9,,82.1,-225,-513,-22,1015.14,83.3,129.1
"2019-08-18 22:04:18+00",12.9,15.9,,82,-271,-492,-4,1015.22,83.3,118.4
"2019-08-18 22:09:18+00",13.7,15.7,,81.7,-233,-539,-12,1015.33,83,108
"2019-08-18 22:14:18+00",10.0,13.0,,81.8,-213,-385,19,1015.36,83,97.7
"2019-08-18 22:19:18+00",13.8,16.8,,81.7,-324,-519,-13,1015.41,83.2,87.5
"2019-08-18 22:24:18+00",10.9,12.9,,81.7,-178,-434,-2,1015.37,82.8,77.3
"2019-08-18 22:29:18+00",13.1,16.1,,81.6,-210,-523,-14,1015.27,82.5,67.7
"2019-08-18 22:34:18+00",8.8,13.8,,81.6,-127,-346,4,1015.18,82.3,57.1
"2019-08-18 22:39:18+00",10.7,13.7,,81.7,-119,-436,-8,1015.21,82.2,48.5
"2019-08-18 22:44:18+00",11.6,14.6,,81.4,-139,-488,1,1015.14,82,17.8
"2019-08-18 22:49:18+00",11.6,14.6,,81.3,-176,-467,-4,1015.07,81.8,32
"2019-08-18 22:54:18+00",12.1,14.1,,81.1,-197,-477,-18,1015.14,81.6,25.3
"2019-08-18 22:59:18+00",10.2,12.2,,80.8,-135,-418,-4,1015.15,81.4,16.2
"2019-08-18 23:04:18+00",9.8,14.8,,80.5,-94,-410,-9,1015.18,80.9,8
"2019-08-18 23:09:18+00",7.5,13.5,,80.2,-53,-310,-4,1015.09,80.6,0
"2019-08-18 23:14:18+00",8.6,11.6,,80.1,-117,-356,3,1015.02,80.3,0.1
"2019-08-18 23:19:18+00",8.6,11.6,,79.9,-106,-362,0,1015.07,80.1,0
"2019-08-18 23:24:18+00",8.2,10.2,,79.7,-92,-342,1,1015.04,79.9,0
"2019-08-18 23:29:18+00",7.1,10.1,,79.5,-63,-290,8,1014.98,79.7,0
"2019-08-18 23:34:18+00",8.6,10.6,,79.3,-25,-355,-21,1014.87,79.4,0
"2019-08-18 23:39:18+00",7.9,9.9,,79,-11,-327,4,1014.84,79.1,0
"2019-08-18 23:44:18+00",8.7,11.7,,78.8,-60,-366,-11,1014.92,78.8,0
"2019-08-18 23:49:18+00",8.1,11.1,,78.7,-93,-338,1,1015.04,78.7,0
"2019-08-18 23:54:18+00",7.7,9.7,,78.6,-83,-313,0,1015.07,78.5,0
"2019-08-18 23:59:18+00",7.6,9.6,,78.5,-102,-316,2,1015.2,78.4,0
